Location: Praha
(50.0830°N, 14.4670°E)
Time: 22:23:44
(UTC+02:00)

ISS - Pass Details

Date: 11 September 2019
Orbit: 411 x 421 km, 51.6° (Epoch: 19 September)

Event Time Altitude Azimuth Distance (km) Brightness Sun altitude
Exits shadow 05:29:42 12° 281° (W) 1,354 -1.7 -10.4°
Maximum altitude 05:32:36 51° 206° (SSW) 532 -3.5 -9.9°
Drops below altitude 10° 05:35:51 10° 130° (SE) 1,490 -0.5 -9.5°
Sets 05:37:59 0° 125° (SE) 2,353 0.6 -9.1°
